{"data":{"norad_id":66018,"epoch":"2026-05-25T04:28:44.342976Z","epoch_age_seconds":56108,"freshness":"FRESH","line1":"1 66018U 25232P   26145.18662434  .00022957  00000+0  78463-3 0  9992","line2":"2 66018  53.1571 108.8654 0001086  86.2079 273.9046 15.30207907 35142","mean_motion":15.30207907,"eccentricity":0.0001086,"inclination_deg":53.1571,"raan_deg":108.8654,"arg_perigee_deg":86.2079,"mean_anomaly_deg":273.9046,"bstar":0.00078463,"rev_number":3514,"period_min":94.104859438555,"perigee_km":474.44718917341,"apogee_km":475.93573211506,"semimajor_km":6853.3284606442,"source":"CELESTRAK","updated_at":"2026-05-25T13:38:21.016069Z"}}